AirNav   Everest Fuels
 
 457 users online  

KWAY Greene County Airport
Waynesburg, Pennsylvania, USA

GOING TO WAYNESBURG?


FAA INFORMATION EFFECTIVE 16 JUNE 2022

Location

FAA Identifier: WAY
Lat/Long: 39-54-04.1000N 080-07-50.5000W
39-54.068333N 080-07.841667W
39.9011389,-80.1306944
(estimated)
Elevation: 1068.6 ft. / 325.7 m (surveyed)
Variation: 09W (2010)
From city: 2 miles E of WAYNESBURG, PA
Time zone: UTC -4 (UTC -5 during Standard Time)
Zip code: 15370

Airport Operations

Airport use: Open to the public
Activation date: 12/1937
Control tower: no
ARTCC: CLEVELAND CENTER
FSS: ALTOONA FLIGHT SERVICE STATION
NOTAMs facility: AOO (NOTAM-D service available)
Attendance: UNATNDD
FOR SVC AFT HOURS CTC 724-993-2190.
Wind indicator: lighted
Segmented circle: yes
Beacon: white-green (lighted land airport)
Operates sunset to sunrise.

Airport Communications

CTAF/UNICOM: 122.8
CLARKSBURG APPROACH: 121.15
CLARKSBURG DEPARTURE: 121.15
WX AWOS-3PT at AFJ (16 nm NW): 119.175 (724-228-3529)
WX ASOS at MGW (18 nm SE): 120.675 (304-296-7103)
  • APCH/DEP SVC PRVDD BY CLEVELAND ARTCC ON FREQS 126.950/239.3 (BELMONT RCAG) WHEN CLARKSBURG APCH CLSD.

Airport Services

Fuel available: 100LL
Parking: hangars and tiedowns
Airframe service: MAJOR
Powerplant service: MAJOR
Bottled oxygen: NONE

Runway Information

Runway 9/27

Dimensions: 3500 x 75 ft. / 1067 x 23 m
Surface: asphalt, in fair condition
Weight bearing capacity: 
Single wheel: 12.0
Runway edge lights: medium intensity
NON-STANDARD SPACING
Runway edge markings: RY 09 TWO 10 FT BY 120 FT CONCRETE PATCHES LCTD APPRXLY 570 FT DOWN THE RY ON EACH SIDE OF THE CNTRLN.
RUNWAY 9  RUNWAY 27
Latitude: 39-54.013167N39-54.124667N
Longitude: 080-08.209167W080-07.475000W
Elevation: 1064.9 ft.1062.1 ft.
Traffic pattern: leftleft
Markings: basic, in fair conditionbasic, in fair condition
Touchdown point: yes, no lightsyes, no lights
Obstructions: 13 ft. trees, 257 ft. from runway, 116 ft. left of centerline, 4:1 slope to clear
15 FT TREES, 128 FT FM RWY END, 166 FT R; 16 FT TREES, 95 FT FM RWY END 180 FT L.
22 ft. trees, 285 ft. from runway, 84 ft. right of centerline, 3:1 slope to clear

Airport Ownership and Management from official FAA records

Ownership: Publicly-owned
Owner: GREENE COUNTY
COUNTY OFFICE BLDG
WAYNESBURG, PA 15370
Phone 724-852-5323
Manager: MARIO BARCHIESI
107 FAIRGROUNDS RD
WAYNESBURG, PA 15370
Phone 724-998-5042

Airport Operational Statistics

Aircraft based on the field: 24
Single engine airplanes: 19
Gliders airplanes: 3
Ultralights: 2
    
Aircraft operations: avg 27/day *
80% local general aviation
20% transient general aviation
<1% military
* for 12-month period ending 23 July 2020

Additional Remarks

GROUND DROPS OFF SHARPLY EAST END RY 09/27.
DEER AND BIRDS ON & INVOF RY.
290 FT HIGH TERRAIN 1,900 FT SOUTH OF RY.
FOR CD CTC CLARKSBURG APCH AT 304-842-2011, WHEN APCH CLSD CTC CLEVELAND ARTCC AT 440-774-0226.
EXTSV GLIDER OPS WKENDS.

Instrument Procedures

NOTE: All procedures below are presented as PDF files. If you need a reader for these files, you should download the free Adobe Reader.

NOT FOR NAVIGATION. Please procure official charts for flight.
FAA instrument procedures published for use from 16 June 2022 at 0901Z to 14 July 2022 at 0900z.

 
IAPs - Instrument Approach Procedures
RNAV (GPS) RWY 27   download (192KB)
RNAV (GPS) Z RWY 09   download (190KB)
COPTER RNAV (GPS) Y RWY 09   download (172KB)
NOTE: Special Take-Off Minimums/Departure Procedures apply   download (149KB)

Other nearby airports with instrument procedures:

KAFJ - Washington County Airport (16 nm NW)
KMGW - Morgantown Municipal Airport-Walter L. Bill Hart Field (18 nm SE)
G05 - Finleyville Airpark (21 nm N)
KVVS - Joseph A Hardy Connellsville Airport (22 nm E)
KFWQ - Rostraver Airport (23 nm NE)
 
Loc | Ops | Rwys | IFR | FBO | Links
Com | Nav | Svcs | Stats | Notes
Area around KWAY (Greene County Airport)
 
Road maps at: MapQuest Bing Google
 
Aerial photo
WARNING: Photo may not be current or correct
Aerial photo of KWAY (Greene County Airport)
Photo by Brittney Menear
Photo taken 18-Apr-2017
looking southwest.

Do you have a better or more recent aerial photo of Greene County Airport that you would like to share? If so, please send us your photo.

 
Sectional chart

 
Airport distance calculator
Flying to Greene County Airport? Find the distance to fly.

From to KWAY

Sunrise and sunset
Times for 27-Jun-2022
 Local
(UTC-4)
 Zulu
(UTC)
Morning civil twilight05:2209:22
Sunrise05:5509:55
Sunset20:5200:52
Evening civil twilight21:2501:25

Current date and time
Zulu (UTC)  27-Jun-2022 05:55:00
Local (UTC-4)  27-Jun-2022 01:55:00
 
METAR
KAFJ 
14nm NW 
270456Z AUTO 23005KT 10SM FEW008 OVC050 22/21 A3004 RMK AO2 LTG DSNT N SLP164 T02170206 402780189 PNO $
KMGW 
18nm SE 
270453Z AUTO 21005KT 10SM FEW013 FEW018 BKN060 24/21 A3004 RMK AO2 SLP163 T02390211 402830211
KVVS 
22nm E 
270535Z AUTO 23005KT 10SM -RA SCT015 BKN024 OVC040 21/20 A3003 RMK AO2 P0002 T02100200
KP53 
23nm NE 
270456Z AUTO 14/07 A3000 RMK AO1 SLP158 T01390072 402110139
KAGC 
29nm N 
270453Z 22005KT 9SM SCT055 22/21 A3000 RMK AO2 LTG DSNT NW SLP153 T02170206 402940211
KHLG 
29nm NW 
270541Z AUTO 24005KT 10SM SCT006 BKN009 OVC034 22/21 A3002 RMK AO2 T02170206
TAF
KMGW 
18nm SE 
270402Z 2704/2724 22005KT P6SM -RA OVC015 TEMPO 2704/2706 3SM -RA FM270600 24005KT P6SM BKN040 FM270900 31010KT P6SM BKN040 FM271300 32006KT P6SM SKC
NOTAMs
Click for the latest NOTAMs
NOTAMs are issued by the DoD/FAA and will open in a separate window not controlled by AirNav.

 

 
 

FBO, Fuel Providers, and Aircraft Ground Support

  
 Business Name 
 
 Contact 
 
 Services / Description 
 
Fuel Prices
 
Comments
  
Greene County Airport 724-627-8029
no information available

If you are affiliated with Greene County Airport and would like to show here your services, contact info, web link, logo, and more, click here
100LL
SS $7.46 
 Updated 21-Jun-2022
 
   1 read write
SS=Self service
Update Fuel Prices
 

Where to Eat: Catering, Restaurants, Food shops

  
 Business Name 
 
 Contact 
 
 Services / Description 
 
Distance
 
Comments
  
Airport Restaurant 724-627-8207
no information available

If you are affiliated with Airport Restaurant and would like to show here your services, contact info, web link, logo, and more, click here
on airport  
   write
 

Would you like to see your business listed on this page?

 If your business provides an interesting product or service to pilots, flight crews, aircraft, or users of the Greene County Airport, you should consider listing it here.  To start the listing process, click on the button below
 
Add a business
 

Other Pages about Greene County Airport

www.co.greene.pa.us/pd-airport.html
 
Update a link
 
Copyright © AirNav, LLC. All rights reserved. Privacy Policy  Contact